Location: Le Hiès Ruisseau
(43.3000°N, 0.4500°W)
Time: 02:25:41
(UTC+00:00)

Okean O Rocket - Pass Details

Date: 28 January 2023
Orbit: 620 x 643 km, 98.1° (Epoch: 27 March)

Event Time Altitude Azimuth Distance (km) Brightness Sun altitude
Exits shadow 18:47:42 20° 136° (SE) 1,451 3.1 -18.2°
Maximum altitude 18:50:25 47° 71° (ENE) 843 1.8 -18.7°
Drops below altitude 10° 18:54:38 10° 358° (N) 2,027 4.1 -19.4°
Sets 18:56:54 0° 353° (N) 2,944 5.0 -19.9°
